Location: Bosdarros
(43.2167°N, 0.3667°W)
Time: 16:33:06
(UTC+00:00)

Cosmos 1869 - Pass Details

Date: 22 April 2021
Orbit: 519 x 563 km, 82.5° (Epoch: 12 May)

Event Time Altitude Azimuth Distance (km) Brightness Sun altitude
Exits shadow 20:47:52 43° 88° (E) 772 3.7 -19.1°
Drops below altitude 10° 20:51:31 10° 22° (NNE) 1,800 6.2 -19.6°
Sets 20:53:43 0° 15° (NNE) 2,689 7.2 -20.0°
